TimeEST,TemperatureF,Dew PointF,Humidity,Sea Level PressureIn,VisibilityMPH,Wind Direction,Wind SpeedMPH,Gust SpeedMPH,PrecipitationIn,Events,Conditions,WindDirDegrees,DateUTC
12:00 AM,32.0,32.0,100,30.08,3.0,SSE,3.5,-,N/A,,Clear,150,2012-12-20 05:00:00
12:20 AM,32.0,32.0,100,30.09,4.0,SSE,3.5,-,N/A,,Clear,160,2012-12-20 05:20:00
12:45 AM,32.0,32.0,100,30.08,5.0,SE,5.8,-,N/A,,Clear,140,2012-12-20 05:45:00
1:05 AM,32.0,32.0,100,30.07,7.0,SE,9.2,-,N/A,,Clear,140,2012-12-20 06:05:00
1:25 AM,32.0,32.0,100,30.08,7.0,SSE,9.2,-,N/A,,Clear,150,2012-12-20 06:25:00
1:45 AM,32.0,32.0,100,30.08,10.0,SE,8.1,-,N/A,,Clear,140,2012-12-20 06:45:00
2:10 AM,32.0,32.0,100,30.06,10.0,ESE,13.8,-,N/A,,Clear,120,2012-12-20 07:10:00
2:30 AM,32.0,32.0,100,30.06,5.0,SE,13.8,-,N/A,,Clear,130,2012-12-20 07:30:00
2:50 AM,32.0,32.0,100,30.06,5.0,SE,16.1,19.6,N/A,,Clear,140,2012-12-20 07:50:00
3:10 AM,32.0,32.0,100,30.05,5.0,SE,13.8,-,N/A,,Clear,130,2012-12-20 08:10:00
3:55 AM,32.0,32.0,100,30.04,5.0,SE,17.3,23.0,N/A,,Clear,130,2012-12-20 08:55:00
4:15 AM,32.0,32.0,100,30.04,5.0,SE,19.6,25.3,N/A,,Clear,130,2012-12-20 09:15:00
4:35 AM,32.0,32.0,100,30.04,5.0,SE,18.4,24.2,N/A,,Clear,130,2012-12-20 09:35:00
5:00 AM,32.0,32.0,100,30.03,5.0,SE,18.4,25.3,N/A,,Clear,130,2012-12-20 10:00:00
5:20 AM,32.0,32.0,100,30.02,4.0,SE,18.4,25.3,N/A,,Clear,130,2012-12-20 10:20:00
5:40 AM,32.0,32.0,100,30.01,4.0,SE,16.1,-,N/A,,Clear,130,2012-12-20 10:40:00
6:05 AM,32.0,32.0,100,30.01,5.0,SE,16.1,20.7,N/A,,Clear,130,2012-12-20 11:05:00
6:25 AM,32.0,32.0,100,30.00,7.0,SE,15.0,21.9,N/A,,Clear,130,2012-12-20 11:25:00
6:45 AM,32.0,32.0,100,30.00,7.0,ESE,16.1,21.9,N/A,,Clear,120,2012-12-20 11:45:00
7:05 AM,32.0,32.0,100,29.98,7.0,ESE,17.3,23.0,N/A,,Clear,120,2012-12-20 12:05:00
7:30 AM,32.0,32.0,100,29.97,7.0,SE,15.0,21.9,N/A,,Clear,130,2012-12-20 12:30:00
7:50 AM,32.0,32.0,100,29.96,7.0,ESE,16.1,23.0,N/A,,Clear,120,2012-12-20 12:50:00
8:10 AM,32.0,32.0,100,29.95,5.0,SE,16.1,25.3,N/A,,Clear,130,2012-12-20 13:10:00
8:30 AM,32.0,32.0,100,29.94,5.0,SE,20.7,27.6,N/A,,Clear,130,2012-12-20 13:30:00
8:50 AM,32.0,32.0,100,29.91,7.0,SE,21.9,32.2,N/A,,Clear,130,2012-12-20 13:50:00
9:15 AM,32.0,32.0,100,29.90,5.0,SE,21.9,28.8,N/A,,Clear,130,2012-12-20 14:15:00
9:35 AM,32.0,32.0,100,29.88,5.0,ESE,20.7,32.2,N/A,,Scattered Clouds,120,2012-12-20 14:35:00
9:55 AM,32.0,32.0,100,29.88,7.0,SE,24.2,32.2,N/A,,Scattered Clouds,130,2012-12-20 14:55:00
10:15 AM,32.0,32.0,100,29.88,7.0,SE,21.9,31.1,N/A,,Mostly Cloudy,130,2012-12-20 15:15:00
10:40 AM,32.0,32.0,100,29.87,7.0,SE,23.0,32.2,N/A,,Mostly Cloudy,130,2012-12-20 15:40:00
11:00 AM,32.0,32.0,100,29.87,7.0,SE,27.6,32.2,N/A,,Mostly Cloudy,130,2012-12-20 16:00:00
11:45 AM,32.0,32.0,100,29.84,10.0,SE,28.8,38.0,N/A,,Mostly Cloudy,140,2012-12-20 16:45:00
12:05 PM,33.8,33.8,100,29.83,10.0,SE,27.6,36.8,N/A,,Overcast,140,2012-12-20 17:05:00
12:25 PM,33.8,33.8,100,29.82,10.0,SE,25.3,34.5,N/A,,Overcast,140,2012-12-20 17:25:00
12:45 PM,33.8,33.8,100,29.80,10.0,SE,20.7,34.5,N/A,,Overcast,140,2012-12-20 17:45:00
1:05 PM,33.8,33.8,100,29.81,10.0,SSE,24.2,36.8,N/A,,Overcast,150,2012-12-20 18:05:00
1:45 PM,33.8,33.8,100,29.74,1.8,SE,25.3,32.2,N/A,,Overcast,140,2012-12-20 18:45:00
2:10 PM,33.8,33.8,100,29.71,2.5,SE,27.6,38.0,N/A,,Overcast,140,2012-12-20 19:10:00
2:30 PM,33.8,33.8,100,29.67,3.0,SE,31.1,36.8,N/A,,Overcast,140,2012-12-20 19:30:00
2:55 PM,33.8,33.8,100,29.65,4.0,SE,27.6,36.8,N/A,,Overcast,140,2012-12-20 19:55:00
3:15 PM,32.0,32.0,100,29.65,2.0,SE,32.2,40.3,N/A,,Overcast,140,2012-12-20 20:15:00
3:35 PM,32.0,32.0,100,29.64,1.8,SE,24.2,39.1,N/A,,Overcast,140,2012-12-20 20:35:00
3:55 PM,33.8,33.8,100,29.64,1.5,SE,28.8,40.3,N/A,,Overcast,140,2012-12-20 20:55:00
4:20 PM,33.8,33.8,100,29.62,1.5,SE,28.8,38.0,N/A,,Overcast,140,2012-12-20 21:20:00
4:40 PM,33.8,33.8,100,29.60,2.5,SE,28.8,34.5,N/A,,Overcast,140,2012-12-20 21:40:00
5:00 PM,33.8,33.8,100,29.58,3.0,SE,28.8,38.0,N/A,,Overcast,140,2012-12-20 22:00:00
5:20 PM,33.8,33.8,100,29.59,3.0,SSE,26.5,35.7,N/A,,Overcast,150,2012-12-20 22:20:00
5:45 PM,33.8,33.8,100,29.58,3.0,SE,28.8,38.0,N/A,,Overcast,140,2012-12-20 22:45:00
6:05 PM,33.8,33.8,100,29.57,3.0,SE,25.3,34.5,N/A,,Overcast,140,2012-12-20 23:05:00
6:25 PM,33.8,33.8,100,29.57,2.5,SE,24.2,32.2,N/A,,Overcast,140,2012-12-20 23:25:00
6:45 PM,33.8,33.8,100,29.57,2.5,SE,24.2,35.7,N/A,,Overcast,140,2012-12-20 23:45:00
7:10 PM,33.8,33.8,100,29.53,5.0,SE,28.8,39.1,N/A,,Overcast,140,2012-12-21 00:10:00
7:30 PM,33.8,33.8,100,29.53,5.0,SE,24.2,35.7,N/A,,Overcast,140,2012-12-21 00:30:00
7:50 PM,33.8,33.8,100,29.52,0.5,SE,24.2,33.4,N/A,Fog,Fog,130,2012-12-21 00:50:00
8:10 PM,32.0,32.0,100,29.50,0.2,SE,21.9,29.9,N/A,Fog,Fog,130,2012-12-21 01:10:00
8:35 PM,32.0,32.0,100,29.48,0.2,SE,17.3,29.9,N/A,Fog,Fog,130,2012-12-21 01:35:00
8:55 PM,32.0,32.0,100,29.42,0.2,ESE,27.6,39.1,N/A,Fog,Fog,120,2012-12-21 01:55:00
9:15 PM,32.0,32.0,100,29.41,0.2,SE,28.8,39.1,N/A,Fog,Fog,130,2012-12-21 02:15:00
9:35 PM,32.0,32.0,100,29.38,0.2,SE,31.1,36.8,N/A,Fog,Fog,130,2012-12-21 02:35:00
10:00 PM,32.0,32.0,100,29.37,0.2,SE,20.7,34.5,N/A,Fog,Fog,130,2012-12-21 03:00:00
10:20 PM,32.0,32.0,100,29.43,0.2,South,8.1,-,N/A,Fog,Fog,190,2012-12-21 03:20:00
10:40 PM,32.0,32.0,100,29.38,0.5,SE,13.8,17.3,N/A,Fog,Fog,130,2012-12-21 03:40:00
11:00 PM,32.0,32.0,100,29.36,2.5,SE,12.7,17.3,N/A,,Overcast,130,2012-12-21 04:00:00
11:25 PM,33.8,33.8,100,29.39,4.0,South,8.1,-,N/A,,Overcast,190,2012-12-21 04:25:00
11:45 PM,33.8,33.8,100,29.38,1.2,SSE,6.9,-,N/A,,Overcast,150,2012-12-21 04:45:00